Regional Weather Roundup
Issued by NWS

Home | Current Version | Previous Version | Graphics & Text | Print | Product List | Glossary On
Versions: 1 2 3 4 5 6 7 8 9 10 11 12 13 14 15 16 17 18 19 20 21 22 23 24 25 26 27 28 29 30 31 32 33 34 35 36 37 38 39 40 41 42 43 44 45 46 47 48 49 50
244
ASUS45 KSLC 261410
RWRUT

UTAH REGIONAL WEATHER ROUNDUP
NATIONAL WEATHER SERVICE SALT LAKE CITY UT
800 AM MDT THU APR 26 2018

UTZ001>011-023>025-261500-

NORTHERN UTAH

CITY           SKY/WX    TMP DP  RH WIND       PRES   REMARKS
BRIGHAM CITY   SUNNY     44  32  64 NW5       30.19S
DUGWAY         SUNNY     43  25  48 SE5       30.20R
HILL AFB       SUNNY     48  26  42 E15G21    30.19R
LOGAN          SUNNY     41  34  76 CALM      30.23R
OGDEN          SUNNY     49  28  44 S5        30.18R
SALT LAKE CITY SUNNY     53  34  48 SE5       30.18R
TOOELE VALLEY  SUNNY     46  37  71 CALM      30.19R
WENDOVER       SUNNY     51  25  36 S5        30.19R
HEBER CITY       N/A     39  27  60 CALM      30.25R
WEST JORDAN    SUNNY     50  37  59 CALM      30.20R

$$

UTZ011>015-024>027-261500-

CENTRAL/NORTHEAST UTAH

CITY           SKY/WX    TMP DP  RH WIND       PRES   REMARKS
PROVO AIRPORT  SUNNY     48  36  63 CALM      30.20R
MOAB/CANYONLAN SUNNY     58  20  22 VRB5      30.17R
DELTA          SUNNY     45  32  61 CALM      30.18R
PRICE          SUNNY     54  20  26 N13       30.22R
ROOSEVELT      SUNNY     52  21  30 SE8       30.29R
VERNAL         SUNNY     51  24  34 E12       30.27R

$$

UTZ013>016-019>022-027-261500-

SOUTHERN UTAH

CITY           SKY/WX    TMP DP  RH WIND       PRES   REMARKS
BRYCE CANYON   SUNNY     40  24  53 W10       30.27S WCI  33
CEDAR CITY     SUNNY     49  29  46 CALM      30.18R
MILFORD        SUNNY     47  33  58 CALM      30.18R
ST GEORGE      SUNNY     61  26  26 SE5       30.04R
HANKSVILLE     SUNNY     48   9  20 CALM      30.19R
KANAB          SUNNY     52  27  37 N2        30.17R
BLANDING         N/A     56  17  22 NE6       30.25R

$$

REGIONAL REPORTS     COLORADO/ARIZONA

CITY           SKY/WX    TMP DP  RH WIND       PRES   REMARKS
CRAIG, CO      SUNNY     41  27  57 CALM      30.29R
GRAND JUNCTION SUNNY     50  22  33 SW8       30.20R
RIFLE, CO      SUNNY     42  26  53 NE7       30.24R
MONTROSE, CO   SUNNY     43  16  33 SE8       30.24R
CORTEZ, CO     SUNNY     44  12  27 NE6       30.17R
COLORADO CITY    N/A     48  30  49 SE5       30.14S
PAGE, AZ       SUNNY     60  22  23 CALM      30.10R
GRAND CANYON   SUNNY     42  18  37 E3        30.20S
KINGMAN, AZ    SUNNY     62  22  21 CALM      30.00R
FLAGSTAFF, AZ  SUNNY     41  22  46 N3        30.21R

$$

REGIONAL REPORTS    NEVADA/IDAHO/WYOMING

CITY           SKY/WX    TMP DP  RH WIND       PRES   REMARKS
LAS VEGAS, NV  MOSUNNY   72  29  20 W6        29.93R
ELY, NY        MOSUNNY   35  19  52 S12       30.24R WCI  27
ELKO, NV       MOSUNNY   36  27  69 CALM      30.21R
POCATELLO, ID  SUNNY     43  33  68 E6        30.25R
BURLEY, ID     SUNNY     47  33  58 NE10G20   30.21R
FORT BRIDGER,    N/A     39  27  60 E9        30.33R WCI  33
EVANSTON, WY   SUNNY     40  23  50 E9        30.29R WCI  34
ROCK SPRINGS,  SUNNY     38  29  70 SE7       30.33R WCI  33
KEMMERER, WY   SUNNY     37  28  70 E7G16     30.33R WCI  32

$$




USA.gov is the U.S. government's official web portal to all federal, state and local government web resources and services.